GW1636 Weather Reports


time (UTC)temp
F
wind
direction
speed
knots
gust
knots
rain 1hr
in
rain 24hr
in
rain mn
in
humidity
%
barometer
mb
20260906100901 75 328 1.7 1.7 0.00 0.00 0.00 87 1016.9
20260906100400 75 321 0.0 1.7 0.00 0.00 0.00 86 1016.8
20260906095855 77 341 0.0 2.6 0.00 0.00 0.00 83 1017.0
20260906095350 77 323 0.9 2.6 0.00 0.00 0.00 80 1017.0
20260906094850 77 327 0.9 1.7 0.00 0.00 0.00 80 1016.7
20260906094345 77 306 0.9 4.3 0.00 0.00 0.00 80 1016.4
20260906093841 77 312 0.9 0.9 0.00 0.00 0.00 82 1016.5
20260906093336 77 313 0.9 0.9 0.00 0.00 0.00 81 1016.2
20260906092826 77 332 1.7 2.6 0.00 0.00 0.00 82 1016.5
20260906092325 77 316 0.9 1.7 0.00 0.00 0.00 83 1016.4
20260906091821 77 305 1.7 4.3 0.00 0.00 0.00 84 1016.3
20260906091317 77 355 1.7 4.3 0.00 0.00 0.00 86 1016.3
20260906090814 77 314 0.9 2.6 0.00 0.00 0.00 88 1016.4
20260906090312 78 313 0.0 0.9 0.00 0.00 0.00 89 1016.2
20260906085812 78 332 0.9 0.9 0.00 0.00 0.00 90 1016.3
20260906085307 77 308 0.0 2.6 0.00 0.00 0.00 91 1016.3
20260906084801 77 335 0.0 0.9 0.00 0.00 0.00 92 1016.2
20260906084300 78 338 0.0 1.7 0.00 0.00 0.00 93 1016.3
20260906083755 78 349 1.7 1.7 0.00 0.00 0.00 93 1016.5
20260906083251 78 315 0.9 1.7 0.00 0.00 0.00 93 1016.6
20260906082745 78 279 0.0 1.7 0.00 0.00 0.00 93 1016.6
20260906082240 78 311 0.0 0.9 0.00 0.00 0.00 93 1016.7
20260906081736 78 333 1.7 1.7 0.00 0.00 0.00 93 1016.8
20260906081231 78 303 0.0 0.9 0.00 0.00 0.00 92 1016.7
20260906080727 78 302 0.0 0.0 0.00 0.00 0.00 92 1017.0
20260906080224 78 311 0.9 1.7 0.00 0.00 0.00 92 1017.0
20260906075718 78 291 0.0 0.9 0.00 0.00 0.00 93 1017.1
20260906075212 78 337 0.9 0.9 0.00 0.00 0.00 93 1017.0
20260906074707 78 2 0.0 2.6 0.00 0.00 0.00 93 1016.7
20260906074207 78 284 0.0 0.0 0.00 0.00 0.00 93 1016.6
20260906073702 78 308 0.9 0.9 0.00 0.00 0.00 93 1016.6
20260906073157 78 304 0.0 1.7 0.00 0.00 0.00 93 1016.7
20260906072652 78 306 0.0 1.7 0.00 0.00 0.00 93 1016.7
20260906072148 78 298 0.0 0.0 0.00 0.00 0.00 94 1016.4
20260906071644 78 300 0.0 0.0 0.00 0.00 0.00 94 1016.5
20260906071143 78 298 0.0 0.0 0.00 0.00 0.00 94 1016.8
20260906070640 78 298 0.0 0.0 0.00 0.00 0.00 94 1016.7
20260906070136 78 298 0.0 0.0 0.00 0.00 0.00 94 1016.6
20260906065635 78 294 0.0 0.0 0.00 0.00 0.00 94 1016.6
20260906065131 78 294 0.0 0.0 0.00 0.00 0.00 94 1016.9
20260906064626 78 287 0.0 0.0 0.00 0.00 0.00 93 1016.7
20260906064121 78 287 0.0 0.0 0.00 0.00 0.00 94 1016.6
20260906063616 78 295 0.0 0.0 0.00 0.00 0.00 93 1016.7
20260906063112 78 295 0.0 0.9 0.00 0.00 0.00 93 1017.1
20260906062608 78 291 0.0 0.0 0.00 0.00 0.00 93 1017.1
20260906062106 78 282 0.0 0.9 0.00 0.00 0.00 93 1016.9
20260906061603 78 282 0.9 0.9 0.00 0.00 0.00 93 1017.1
20260906061102 77 305 0.0 0.9 0.00 0.00 0.00 93 1017.0
20260906060559 78 306 0.0 0.0 0.00 0.00 0.00 93 1017.4
20260906060056 78 305 0.0 0.0 0.00 0.00 0.00 93 1017.2
20260906055551 78 303 0.0 0.0 0.00 0.00 0.00 93 1017.4
20260906055046 78 303 0.0 0.0 0.00 0.00 0.00 93 1017.2
20260906054541 77 303 0.0 0.0 0.00 0.00 0.00 93 1017.3
20260906054036 77 303 0.0 0.0 0.00 0.00 0.00 93 1017.4
20260906053533 77 303 0.0 0.0 0.00 0.00 0.00 93 1017.3
20260906053028 78 303 0.0 0.0 0.00 0.00 0.00 92 1017.2
20260906052524 78 303 0.0 0.0 0.00 0.00 0.00 92 1017.5
20260906052021 78 303 0.0 0.0 0.00 0.00 0.00 92 1017.4
20260906051516 78 303 0.0 0.0 0.00 0.00 0.00 92 1017.3
20260906051011 78 305 0.0 0.0 0.00 0.00 0.00 91 1017.1
20260906050512 78 317 0.0 0.0 0.00 0.00 0.00 91 1017.2
20260906050006 78 318 0.0 0.0 0.00 0.00 0.00 91 1017.3
20260906045504 78 318 0.0 0.0 0.00 0.00 0.00 90 1017.3
20260906045000 78 317 0.0 0.0 0.00 0.00 0.00 90 1017.3
20260906044455 79 327 0.0 0.0 0.00 0.00 0.00 89 1017.6
20260906043951 79 340 1.7 1.7 0.00 0.00 0.00 89 1017.3
20260906043447 79 283 0.0 1.7 0.00 0.00 0.00 89 1017.1
20260906042943 79 280 0.9 0.9 0.00 0.00 0.00 88 1017.1
20260906042441 79 283 0.0 0.9 0.00 0.00 0.00 88 1017.2
20260906041936 79 289 0.0 0.0 0.00 0.00 0.00 88 1017.3
20260906041433 79 295 0.0 0.9 0.00 0.00 0.00 87 1017.2
20260906040932 79 293 0.0 0.0 0.00 0.00 0.00 87 1017.3
20260906040427 79 300 0.0 0.0 0.00 0.00 0.00 87 1017.3
20260906035922 79 298 0.0 0.9 0.00 0.00 0.00 86 1017.3
20260906035418 79 304 0.0 0.0 0.00 0.00 0.00 87 1017.0
20260906034913 79 296 0.0 0.0 0.00 0.00 0.00 86 1017.3
20260906034413 79 296 0.0 0.9 0.00 0.00 0.00 86 1017.3
20260906033909 79 296 0.0 0.9 0.00 0.00 0.00 86 1017.3
20260906033409 80 289 0.0 0.0 0.00 0.00 0.00 86 1017.4
20260906032904 80 296 0.9 0.9 0.00 0.00 0.00 86 1017.2
20260906032401 80 283 0.9 1.7 0.00 0.00 0.00 86 1017.1
20260906031855 80 290 0.0 0.9 0.00 0.00 0.00 86 1017.2
20260906031350 80 312 0.0 0.9 0.00 0.00 0.00 86 1017.0
20260906030845 80 284 0.0 1.7 0.00 0.00 0.00 85 1017.2
20260906030340 80 284 0.0 0.0 0.00 0.00 0.00 85 1017.0
20260906025835 80 279 0.0 0.9 0.00 0.00 0.00 86 1017.0
20260906025329 80 291 0.0 0.9 0.00 0.00 0.00 86 1017.0
20260906024828 80 279 0.0 1.7 0.00 0.00 0.00 86 1017.1
20260906024327 80 279 0.0 0.9 0.00 0.00 0.00 85 1017.1
20260906023823 80 276 0.0 0.9 0.00 0.00 0.00 85 1017.1
20260906023318 80 275 0.0 0.9 0.00 0.00 0.00 85 1017.2
20260906022814 80 275 0.0 0.9 0.00 0.00 0.00 85 1017.1
20260906022309 80 274 0.9 1.7 0.00 0.00 0.00 85 1017.1
20260906021805 81 276 0.0 0.0 0.00 0.00 0.00 85 1017.1
20260906021304 81 269 0.9 0.9 0.00 0.00 0.00 85 1017.0
20260906020758 81 274 0.0 2.6 0.00 0.00 0.00 85 1017.0
20260906020253 81 301 0.0 0.9 0.00 0.00 0.00 84 1017.0
20260906015752 81 285 0.0 0.0 0.00 0.00 0.00 85 1016.8
20260906015251 81 272 0.0 0.9 0.00 0.00 0.00 85 1016.8
20260906014746 81 277 0.0 0.9 0.00 0.00 0.00 84 1016.6
20260906014242 81 276 0.0 0.9 0.00 0.00 0.00 84 1016.6
20260906013738 81 233 2.6 2.6 0.00 0.00 0.00 84 1016.5
20260906013237 82 289 0.0 0.9 0.00 0.00 0.00 83 1016.2
20260906012733 82 284 0.0 0.0 0.00 0.00 0.00 83 1016.3
20260906012227 82 285 0.0 0.9 0.00 0.00 0.00 83 1016.2
20260906011722 82 287 0.0 2.6 0.00 0.00 0.00 83 1016.0
20260906011217 82 286 0.0 0.9 0.00 0.00 0.00 83 1016.0
20260906010713 82 275 0.9 2.6 0.00 0.00 0.00 83 1016.0
20260906010209 82 291 0.0 0.9 0.00 0.00 0.00 83 1015.8
20260906005708 82 323 1.7 1.7 0.00 0.00 0.00 83 1015.8
20260906005203 82 287 0.0 1.7 0.00 0.00 0.00 83 1015.6
20260906004701 83 308 0.0 0.0 0.00 0.00 0.00 83 1015.7
20260906004156 83 286 0.9 1.7 0.00 0.00 0.00 82 1015.8
20260906003652 83 289 0.0 1.7 0.00 0.00 0.00 82 1015.8
20260906003147 83 302 0.9 0.9 0.00 0.00 0.00 82 1015.7
20260906002642 83 292 0.0 0.9 0.00 0.00 0.00 82 1015.8
20260906002137 84 284 0.0 0.9 0.00 0.00 0.00 81 1015.7
20260906001632 84 294 0.0 0.0 0.00 0.00 0.00 81 1015.9
20260906001132 84 253 0.0 0.9 0.00 0.00 0.00 80 1015.8
20260906000628 84 288 0.0 0.9 0.00 0.00 0.00 80 1016.0
20260906000123 84 279 0.0 0.9 0.00 0.00 0.00 80 1015.9
20260905235622 84 275 0.9 1.7 0.00 0.00 0.00 79 1016.0
20260905235117 84 293 0.9 1.7 0.00 0.00 0.00 79 1016.0
20260905234612 85 263 0.0 2.6 0.00 0.00 0.00 79 1016.0
20260905234108 85 289 0.0 1.7 0.00 0.00 0.00 78 1016.0
20260905233602 85 290 0.0 0.9 0.00 0.00 0.00 78 1015.9
20260905233056 85 308 0.0 1.7 0.00 0.00 0.00 78 1015.9
20260905232552 86 300 0.9 1.7 0.00 0.00 0.00 77 1015.8
20260905232048 86 292 1.7 2.6 0.00 0.00 0.00 76 1015.7
20260905231543 86 250 0.9 5.2 0.00 0.00 0.00 76 1015.8
20260905231039 87 290 0.9 2.6 0.00 0.00 0.00 75 1015.7
20260905230538 87 287 0.9 2.6 0.00 0.00 0.00 74 1015.9
20260905230037 87 287 2.6 4.3 0.00 0.00 0.00 74 1015.7
20260905225531 87 113 3.5 7.0 0.00 0.00 0.00 74 1015.9
20260905225026 87 276 0.9 2.6 0.00 0.00 0.00 73 1015.8
20260905224521 88 286 0.9 1.7 0.00 0.00 0.00 73 1016.0
20260905224021 89 288 1.7 1.7 0.00 0.00 0.00 73 1016.1
20260905223518 89 325 2.6 2.6 0.00 0.00 0.00 69 1015.9
20260905223013 90 310 1.7 2.6 0.00 0.00 0.00 68 1015.8
20260905222508 91 341 0.9 5.2 0.00 0.00 0.00 66 1015.9
20260905222003 91 294 0.0 0.9 0.00 0.00 0.00 65 1015.7
20260905221500 91 301 0.0 0.0 0.00 0.00 0.00 64 1015.7
20260905220955 92 266 0.9 0.9 0.00 0.00 0.00 63 1015.6
20260905220451 92 296 0.0 4.3 0.00 0.00 0.00 62 1015.5
20260905215950 93 316 0.9 2.6 0.00 0.00 0.00 58 1015.5
20260905215446 93 290 0.0 0.9 0.00 0.00 0.00 54 1015.4
20260905214942 93 294 0.0 1.7 0.00 0.00 0.00 54 1015.4
20260905214437 94 261 0.9 1.7 0.00 0.00 0.00 54 1015.4
20260905213932 94 275 0.0 0.9 0.00 0.00 0.00 54 1015.4
20260905213428 94 247 1.7 4.3 0.00 0.00 0.00 54 1015.5
20260905212923 95 237 2.6 4.3 0.00 0.00 0.00 52 1015.6
20260905212418 97 240 1.7 1.7 0.00 0.00 0.00 45 1015.6
20260905211917 97 263 1.7 4.3 0.00 0.00 0.00 44 1015.4
20260905211412 96 194 1.7 2.6 0.00 0.00 0.00 45 1015.6
20260905210908 96 315 0.9 1.7 0.00 0.00 0.00 45 1015.6
20260905210403 95 318 0.0 0.9 0.00 0.00 0.00 44 1015.7
20260905205903 96 318 0.9 1.7 0.00 0.00 0.00 44 1015.6
20260905205357 96 16 0.9 1.7 0.00 0.00 0.00 45 1015.7
20260905204856 97 283 0.0 0.9 0.00 0.00 0.00 46 1015.6
20260905204353 96 271 0.0 1.7 0.00 0.00 0.00 46 1015.8
20260905203851 96 258 0.9 2.6 0.00 0.00 0.00 46 1015.9
20260905203347 95 233 0.9 1.7 0.00 0.00 0.00 47 1016.0
20260905202842 96 228 1.7 1.7 0.00 0.00 0.00 46 1016.0
20260905202337 96 271 0.9 4.3 0.00 0.00 0.00 47 1016.1
20260905201833 97 9 1.7 1.7 0.00 0.00 0.00 45 1016.0
20260905201328 97 354 2.6 2.6 0.00 0.00 0.00 47 1016.1
20260905200822 96 324 0.9 4.3 0.00 0.00 0.00 48 1016.1
20260905200319 96 314 0.9 2.6 0.00 0.00 0.00 47 1016.3
20260905195816 95 285 0.9 0.9 0.00 0.00 0.00 47 1016.2
20260905195311 94 322 0.9 1.7 0.00 0.00 0.00 49 1016.2
20260905194808 95 319 0.9 2.6 0.00 0.00 0.00 49 1016.3
20260905194307 95 330 0.9 2.6 0.00 0.00 0.00 49 1016.1
20260905193806 96 344 0.9 2.6 0.00 0.00 0.00 47 1016.5
20260905193301 96 307 0.0 0.9 0.00 0.00 0.00 47 1016.3
20260905192756 97 318 0.0 0.9 0.00 0.00 0.00 46 1016.3
20260905192253 96 278 0.9 2.6 0.00 0.00 0.00 46 1016.6
20260905191751 97 322 0.9 1.7 0.00 0.00 0.00 46 1016.5
20260905191250 96 355 0.9 1.7 0.00 0.00 0.00 48 1016.5
20260905190748 96 83 1.7 1.7 0.00 0.00 0.00 48 1016.7
20260905190243 95 293 0.0 0.9 0.00 0.00 0.00 48 1016.9
20260905185742 95 306 0.9 2.6 0.00 0.00 0.00 48 1016.8
20260905185237 96 358 1.7 2.6 0.00 0.00 0.00 46 1016.9
20260905184731 96 331 1.7 1.7 0.00 0.00 0.00 47 1017.2
20260905184230 96 331 1.7 1.7 0.00 0.00 0.00 47 1017.1
20260905183729 96 311 0.9 1.7 0.00 0.00 0.00 47 1017.4
20260905183225 95 21 1.7 1.7 0.00 0.00 0.00 49 1017.3
20260905182725 96 77 0.9 1.7 0.00 0.00 0.00 48 1017.5
20260905182224 95 315 0.9 2.6 0.00 0.00 0.00 50 1017.6
20260905181720 93 299 0.0 2.6 0.00 0.00 0.00 51 1017.7
20260905181218 93 319 0.9 0.9 0.00 0.00 0.00 51 1017.8
20260905180713 95 318 0.0 1.7 0.00 0.00 0.00 50 1017.8
20260905180209 94 333 2.6 4.3 0.00 0.00 0.00 50 1018.0
20260905175709 93 68 0.9 1.7 0.00 0.00 0.00 51 1018.0
20260905175203 95 20 1.7 1.7 0.00 0.00 0.00 49 1018.0
20260905174659 96 327 0.9 1.7 0.00 0.00 0.00 48 1018.2
20260905174154 96 19 0.9 2.6 0.00 0.00 0.00 47 1018.2
20260905173650 95 344 1.7 1.7 0.00 0.00 0.00 48 1018.1
20260905173146 96 309 0.9 1.7 0.00 0.00 0.00 47 1018.3
20260905172645 96 325 0.0 2.6 0.00 0.00 0.00 46 1018.4
20260905172139 96 279 0.0 1.7 0.00 0.00 0.00 48 1018.3
20260905171635 95 319 0.0 0.9 0.00 0.00 0.00 49 1018.6
20260905171131 93 293 3.5 4.3 0.00 0.00 0.00 54 1018.3
20260905170628 92 316 0.0 1.7 0.00 0.00 0.00 56 1018.4
20260905170123 93 329 0.9 1.7 0.00 0.00 0.00 54 1018.7
20260905165617 95 299 0.9 0.9 0.00 0.00 0.00 53 1018.6
20260905165113 95 206 1.7 1.7 0.00 0.00 0.00 51 1018.7
20260905164607 94 301 0.0 2.6 0.00 0.00 0.00 53 1018.8
20260905164101 94 300 0.0 0.9 0.00 0.00 0.00 54 1019.0
20260905163552 95 305 0.0 1.7 0.00 0.00 0.00 54 1018.9
20260905163048 94 309 0.0 2.6 0.00 0.00 0.00 54 1019.0
20260905162544 94 332 0.0 1.7 0.00 0.00 0.00 54 1019.0
20260905162043 93 272 0.9 1.7 0.00 0.00 0.00 54 1018.9
20260905161543 93 303 1.7 2.6 0.00 0.00 0.00 57 1019.3
20260905161041 93 2 0.9 2.6 0.00 0.00 0.00 57 1019.1
20260905160540 93 298 1.7 1.7 0.00 0.00 0.00 57 1019.1
20260905160034 93 12 0.9 2.6 0.00 0.00 0.00 57 1018.8
20260905155534 92 323 0.0 2.6 0.00 0.00 0.00 59 1019.1
20260905155033 92 318 2.6 5.2 0.00 0.00 0.00 59 1019.1
20260905154528 92 344 0.0 1.7 0.00 0.00 0.00 58 1019.0
20260905154024 91 336 0.9 2.6 0.00 0.00 0.00 60 1019.1
20260905153520 91 321 0.0 0.9 0.00 0.00 0.00 60 1019.1
20260905153020 92 315 0.0 2.6 0.00 0.00 0.00 60 1019.1
20260905152519 91 326 1.7 1.7 0.00 0.00 0.00 61 1019.2
20260905152015 91 323 0.9 0.9 0.00 0.00 0.00 62 1019.1
20260905151510 90 324 0.0 1.7 0.00 0.00 0.00 63 1019.2
20260905151005 90 342 0.9 1.7 0.00 0.00 0.00 63 1019.0
20260905150500 89 350 0.0 0.9 0.00 0.00 0.00 64 1019.1
20260905145956 88 321 0.0 1.7 0.00 0.00 0.00 67 1019.1
20260905145451 88 319 0.0 1.7 0.00 0.00 0.00 66 1018.9
20260905144950 87 320 0.9 1.7 0.00 0.00 0.00 68 1019.0
20260905144446 87 309 0.9 4.3 0.00 0.00 0.00 68 1019.2
20260905143945 86 314 0.9 4.3 0.00 0.00 0.00 70 1019.2
20260905143444 86 340 1.7 2.6 0.00 0.00 0.00 70 1019.2
20260905142939 86 325 0.0 0.9 0.00 0.00 0.00 71 1019.2
20260905142438 86 324 0.0 0.9 0.00 0.00 0.00 71 1019.3
20260905141933 86 324 0.0 0.9 0.00 0.00 0.00 73 1019.3
20260905141428 85 335 0.0 0.0 0.00 0.00 0.00 74 1019.2
20260905140925 85 319 0.9 2.6 0.00 0.00 0.00 74 1019.1
20260905140420 84 326 2.6 2.6 0.00 0.00 0.00 74 1019.2
20260905135918 84 343 2.6 2.6 0.00 0.00 0.00 76 1019.2
20260905135414 83 325 0.0 0.9 0.00 0.00 0.00 77 1019.1
20260905134909 83 335 0.0 2.6 0.00 0.00 0.00 78 1019.2
20260905134408 82 333 0.0 0.9 0.00 0.00 0.00 80 1019.1
20260905133903 82 346 0.9 1.7 0.00 0.00 0.00 80 1019.3
20260905133358 82 321 0.9 1.7 0.00 0.00 0.00 81 1019.2
20260905132857 81 328 0.9 1.7 0.00 0.00 0.00 81 1019.1
20260905132352 81 317 0.0 0.9 0.00 0.00 0.00 82 1019.2
20260905131846 81 318 0.9 1.7 0.00 0.00 0.00 83 1019.1
20260905131342 80 321 0.0 0.9 0.00 0.00 0.00 84 1019.3
20260905130837 80 306 0.0 0.0 0.00 0.00 0.00 85 1019.3
20260905130336 79 316 0.0 0.0 0.00 0.00 0.00 86 1019.5
20260905125831 79 316 0.0 0.0 0.00 0.00 0.00 87 1019.2
20260905125326 79 309 0.0 0.0 0.00 0.00 0.00 88 1019.4
20260905124822 78 317 0.0 0.0 0.00 0.00 0.00 88 1019.3
20260905124319 78 317 0.0 0.9 0.00 0.00 0.00 88 1019.3
20260905123813 78 323 0.9 0.9 0.00 0.00 0.00 89 1019.3
20260905123310 78 322 0.9 1.7 0.00 0.00 0.00 89 1019.1
20260905122809 77 316 0.0 0.9 0.00 0.00 0.00 90 1019.3
20260905122309 77 313 0.0 0.9 0.00 0.00 0.00 90 1019.1
20260905121805 77 314 0.0 0.9 0.00 0.00 0.00 91 1019.0
20260905121301 76 314 0.9 0.9 0.00 0.00 0.00 91 1019.1
20260905120759 76 314 0.0 0.0 0.00 0.00 0.00 92 1019.1
20260905120254 76 310 0.9 0.9 0.00 0.00 0.00 92 1019.0
20260905115749 76 308 0.0 0.0 0.00 0.00 0.00 92 1018.9
20260905115249 75 308 0.0 0.9 0.00 0.00 0.00 92 1019.0
20260905114748 75 303 0.0 0.0 0.00 0.00 0.00 92 1018.8
20260905114247 75 303 0.0 0.0 0.00 0.00 0.00 92 1019.1
20260905113746 75 303 0.0 0.0 0.00 0.00 0.00 92 1018.9
20260905113243 75 303 0.0 0.0 0.00 0.00 0.00 92 1018.9
20260905112737 76 303 0.0 0.0 0.00 0.00 0.00 92 1018.8
20260905112232 76 303 0.0 0.0 0.00 0.00 0.00 91 1018.9
20260905111727 76 298 0.0 0.0 0.00 0.00 0.00 91 1018.7
20260905111221 76 298 0.0 0.9 0.00 0.00 0.00 91 1018.8
20260905110720 76 307 0.0 0.9 0.00 0.00 0.00 91 1018.8
20260905110215 76 301 1.7 1.7 0.00 0.00 0.00 91 1018.8
20260905105711 76 312 0.0 0.0 0.00 0.00 0.00 91 1018.8
20260905105209 76 300 0.0 0.9 0.00 0.00 0.00 91 1018.8
20260905104704 76 305 0.0 0.0 0.00 0.00 0.00 91 1018.6
20260905104201 75 305 0.0 0.0 0.00 0.00 0.00 92 1018.6
20260905103655 75 305 0.0 0.9 0.00 0.00 0.00 92 1018.7
20260905103151 75 305 0.0 0.9 0.00 0.00 0.00 92 1018.7
20260905102647 75 304 0.0 0.0 0.00 0.00 0.00 92 1018.6
20260905102143 76 304 0.0 0.0 0.00 0.00 0.00 91 1018.6
20260905101641 76 304 0.0 0.0 0.00 0.00 0.00 91 1018.6